Regional Weather Roundup
Issued by NWS

Home | Current Version | Previous Version | Graphics & Text | Print | Product List | Glossary On
Versions: 1 2 3 4 5 6 7 8 9 10 11 12 13 14 15 16 17 18 19 20 21 22 23 24 25 26 27 28 29 30 31 32 33 34 35 36 37 38 39 40 41 42 43 44 45 46 47 48 49 50
000
ASUS45 KSLC 040610
RWRUT

UTAH REGIONAL WEATHER ROUNDUP
NATIONAL WEATHER SERVICE SALT LAKE CITY UT
1200 AM MDT MON MAY 04 2015

UTZ001>011-023>025-040700-

NORTHERN UTAH

CITY           SKY/WX    TMP DP  RH WIND       PRES   REMARKS
BRIGHAM CITY   CLOUDY    59  42  52 CALM      29.91R
HILL AFB       CLOUDY    66  38  36 SW8       29.94R
LOGAN          CLEAR     51  46  83 VRB5      29.94R
OGDEN          LGT RAIN  68  33  27 VRB6G21   29.91R
PROVO AIRPORT  CLOUDY    64  37  36 E3        29.95R
SALT LAKE CITY CLOUDY    68  39  34 S10       29.92R
VERNAL         PTCLDY    53  39  59 W3        30.00S
WENDOVER       CLOUDY    64  36  34 W9        29.91R
HEBER CITY     CLOUDY    55  41  58 SW6       30.01R
WEST JORDAN    CLOUDY    63  43  48 SW7       29.95R

$$

UTZ012>022-026-027-040700-

SOUTHERN/CENTRAL UTAH

CITY           SKY/WX    TMP DP  RH WIND       PRES   REMARKS
BLANDING       PTCLDY    52  37  58 N6        30.08S
BRYCE CANYON   MOCLDY    41  35  79 W7        30.09S
CEDAR CITY     CLOUDY    56  37  49 SE7       30.00F
DELTA          CLOUDY    61  40  45 E7        29.96S
HANKSVILLE     CLEAR     63  36  36 E7        29.94S
MILFORD        CLOUDY    60  38  43 S13       29.94S
MOAB/CYNLANDS  CLOUDY    60  42  51 SE7       29.93R
PRICE          PTCLDY    58  31  35 CALM      29.99R
ST GEORGE      CLOUDY    66  39  37 E9        29.89S
KANAB          CLOUDY    54  43  66 CALM      30.02S

$$

REGIONAL REPORTS     COLORADO/ARIZONA

CITY           SKY/WX    TMP DP  RH WIND       PRES   REMARKS
CRAIG, CO      CLOUDY    53  40  61 E7        30.08F
GRAND JUNCTION PTCLDY    56  42  59 SE12      30.00R
RIFLE          LGT RAIN  51  47  86 CALM      30.11R
MONTROSE       MOCLDY    51  39  63 S6        30.08F
CORTEZ         CLEAR     49  37  63 NW5       30.03R
PAGE, AZ       MOCLDY    64  39  39 CALM      29.95S
GRAND CANYON   PTCLDY    39  36  89 CALM      30.07R
KINGMAN        CLEAR     62  35  36 NE7       29.88R
FLAGSTAFF      CLEAR     41  35  79 CALM      30.09F

$$

REGIONAL REPORTS    NEVADA/IDAHO/WYOMING

CITY           SKY/WX    TMP DP  RH WIND       PRES   REMARKS
LAS VEGAS, NV  PTCLDY    78  26  14 S8        29.73R
ELY            CLOUDY    59  31  34 SE14      29.99R
ELKO           PTCLDY    57  35  43 E5        29.93R
POCATELLO, ID  CLEAR     57  40  52 E10       29.92S
BURLEY         MOCLDY    59  39  47 N5        29.87R
EVANSTON, WY   CLOUDY    46  38  73 SE10      30.07S
ROCK SPRINGS   MOCLDY    46  37  71 SW7       30.06R
KEMMERER       PTCLDY    39  37  93 N7        30.10S WCI  34

$$


USA.gov is the U.S. government's official web portal to all federal, state and local government web resources and services.